THORAD AGENA D DEB, 42497

Orbit data source: Space-Track

THORAD AGENA D DEB, 42497 is space debris in SSO originally from a launch on Wed, 08 Apr 1970 UTC launched from the Air Force Western Test Range (AFWTR). Debris objects in space refer to the collection of defunct objects orbiting the Earth. Examples of debris include non-operational satellites, rocket bodies, and fragments generated from explosions, collisions, or faulty payload assembly.

Loading next visibility...
Identifier
42497, 1970-025RB
Orbit
SSO
Country
Flag of USUS
Related business
Manufacturer
Unknown
Mission
Spacecraft
Bus & Motor
Unknown
Mass
Unknown
Launch date (UTC)
1970-04-08 (55 years ago)
Launch vehicle
Unknown
Launch site
Air Force Western Test Range (AFWTR)
Object type
Payload
Rocket body
Debris
Shape & HBR
Unknown
Radar Cross Section
Small (<0.1 m²)

Expand to show TLE details & history
Last TLE update: 4 days ago

TLE from 4 days ago
0 THORAD AGENA D DEB
1 42497U 70025RB  25255.85585214  .00001486  00000-0  10680-2 0  9993
2 42497 100.0176 106.5445 0028685 169.3359 190.8415 13.98595219599297
Epoch: 2025-09-12T20:32Z
TLE epoch observation values (Epoch: 2025-09-12T20:32:25.624Z)
Latitude
-0.00008°
Longitude
166.34018°
Altitude
922.011 km
Speed
7.381 km/s
True Right ascension
07h 06m 10s
True Declination
0° 00' 00"
Sunlit
Object was in daylight at epoch
Visualization orbit readout
Latitude
Unknown
Longitude
Unknown
Altitude
Unknown
Speed
Unknown
Apparent Right ascension
Unknown
Apparent Declination
Unknown
Sunlit
N/A
Visualization observer readout
Local Sidereal Time
21:34:09
Azimuth
Unknown
Elevation
Unknown
Doppler factor
Unknown
Orbital elements
Apogee altitude
916.783 km
Perigee altitude
875.052 km
Semi-major axis
7,274.054 km
Eccentricity
0.00287
Inclination
100.0176°
RAAN
106.5445°
Arg. of periapsis
169.3359°
True anomaly
190.77989°
Mean anomaly
190.8415°
Eccentric anomaly
190.81067°
Mean motion
3.49847 °/min
Orbital period
102.9 mins
BSTAR
0.001068
Loading maneuver chart data...
Computing Atmospheric mass density...

Documentation

Showing up to 5 results
|